Daniel Oduber Quiros International Airport

Jump to: basic info | weather | frequencies | runways | comments

Related pages: nearby airports | nearby navaids | notams | map

Basic information (top)

Codes: LIR MRLB
Location: lon 10.593300, lat -85.544403, elev 270 ft / 82 m msl
Status: medium_airport
Scheduled airline service: yes
Links: Wikipedia Mobile

Weather (top)

Current conditions (rec'd 2014/07/28 18:00Z):

MRLB 281800Z 04013KT 9999 FEW030 OVC250 34/20 A2984

Airport forecast (rec'd 2014/07/23 00:10Z):

TAF MRLB 232300Z 2400/2424 07006KT 9999 FEW035 SCT120 TX34/2319Z TN23/2411Z 
      TEMPO 2403/2416 07016KT CAVOK 
      BECMG 2417/2420 06015G25KT 9999 FEW040 SCT250 
     FM242100 07010KT SCT030 BKN120

Frequencies (top)

Verify before use: may be inaccurate or out of date.

APP: 119.8 MHz (LIBERIA APP)
GND: 121.7 MHz (GND)
RDO: 126.8 MHz (COCO RDO)
TWR: 118.8 MHz (LIBERIA TWR)

Runways (top)

07/25: 9,022 x 148 ft (2,750 x 45 m) — paved — lighted

Latest comments (top)

Great Facility but: Make sure you either speak fluent ... [read]

Terminal building: Nice new facility opened in 2011 [read]

More... (top)

See also NOTAMs and nearby airports and navaids, or visit the Daniel Oduber Quiros International Airport page at the main OurAirports website..